User: anonymous   Login
Location: Unspecified
(0.0000°N, 0.0000°E)
Time: 06:45:41
(UTC+00:00)
Language:

Transit VE-3 - Orbit

View from above orbital plane
View from above orbital plane
View from above satellite
View from above satellite

Ground track
Ground track

The orbit data is extracted from the following two-line orbital elements,

1   705U 63049C   17087.63378818 +.00000034 +00000-0 +40376-4 0  9992
2   705 089.9116 101.3463 0032639 219.7624 260.6620 13.47299732618712
Epoch (UTC): 28 March 2017 15:12:39
Eccentricity: 0.0032639
inclination: 89.9116°
perigee height: 1058 km
apogee height: 1106 km
right ascension of ascending node: 101.3463°
argument of perigee: 219.7624°
revolutions per day: 13.47299732
mean anomaly at epoch: 260.6620°
orbit number at epoch: 61871

The dashed part of the orbit path shows where the satellite is in the earth's shadow,  

DLR